Regional Weather Roundup
Issued by NWS

Home | Current Version | Previous Version | Text Only | Print | Product List | Glossary On
Versions: 1 2 3 4 5 6 7 8 9 10 11 12 13 14 15 16 17 18 19 20 21 22 23 24 25 26 27 28 29 30 31 32 33 34 35 36 37 38 39 40 41 42 43 44 45 46 47 48 49 50
000
ASPQ40 PGUM 050414
RWRPQ
WEATHER ROUNDUP FOR THE MARIANAS AND MICRONESIA
NATIONAL WEATHER SERVICE TIYAN GU
200 PM CHST WED AUG 05 2015

GUZ001>004-050500-
MARIANA ISLANDS-

CITY           SKY/WX    TMP DP  RH WIND       PRES   REMARKS
GUAM AIRPORT   CLOUDY    82  79  89 SW9       29.68F HX  93
ANDERSEN AFB   NOT AVBL
ROTA AIRPORT   NOT AVBL
TINIAN AP      NOT AVBL
SAIPAN AP      NOT AVBL

$$

PMZ161-050500-
REPUBLIC OF PALAU-

CITY           SKY/WX    TMP DP  RH WIND       PRES   REMARKS
KOROR AP       CLOUDY    86  75  70 SW18G29   29.70S HX  95
KOROR WSO      PTSUNNY   86  75  70 SW7G24    29.72S HX  95

$$

PMZ171>174-050500-
FEDERATED STATES OF MICRONESIA-

CITY           SKY/WX    TMP DP  RH WIND       PRES   REMARKS
YAP AIRPORT    LGT RAIN  79  75  89 W12       29.68F
CHUUK AP       CLOUDY    86  77  74 VRB3      29.76F HX  97
POHNPEI AP     CLOUDY    81  77  89 NW16      29.78F
POHNPEI WSO    CLOUDY    81  75  83 W3        29.81F
KOSRAE AP      NOT AVBL

$$

PMZ181-050500-
REPUBLIC OF THE MARSHALL ISLANDS-

CITY           SKY/WX    TMP DP  RH WIND       PRES   REMARKS
KWAJALEIN AP   SUNNY     88  75  66 E10       29.73S HX  97
MAJURO AP      NOT AVBL
MAJURO WSO     MOSUNNY   88  79  74 E7        29.70F HX 102

$$



USA.gov is the U.S. government's official web portal to all federal, state and local government web resources and services.